Current Version              Previous Version:    01  02  03  04  05  06  07  08  09  10  11  12  13  14  15  16  17  18  19  20  21  22  23  24  25  26  27  28  29  30  
   31  32  33  34  35  36  37  38  39  40  41  42  43  44  45  46  47  48  49  50  51  52  53  54  55  56  57  58  59  60  

[Printable]
527
ASUS44 KEWX 161302
RWRTX
SOUTH TEXAS REGIONAL WEATHER ROUNDUP
NATIONAL WEATHER SERVICE AUSTIN/SAN ANTONIO TX
800 AM CDT WED APR 16 2014

NOTE: "FAIR" INDICATED FEW OR NO CLOUDS BELOW 12,000 FEET WITH NO
SIGNIFICANT WEATHER AND/OR OBSTRUCTIONS TO VISIBILITY.

* - THESE STATIONS ARE NOT NWS OR FAA STATIONS...AND ARE NOT SUBJECT
    TO NWS AND FAA QUALITY CONTROL.

TXZ171-172-183>190-161400-
TEXAS HILL COUNTRY AND EDWARDS PLATEAU

CITY           SKY/WX    TMP DP  RH WIND       PRES   REMARKS
JUNCTION       CLEAR     45  30  55 S3        30.05S
*LLANO         MOSUNNY   39  30  70 CALM      30.13R
BURNET         MOSUNNY   43  29  57 CALM      30.12R
*HORSESHOE BAY MOSUNNY   41  30  63 S6        30.10R WCI  38
*KERRVILLE     SUNNY     39  32  76 SE6       30.09S WCI  35
*FREDERICKSBRG MOSUNNY   37  30  77 CALM      30.08S
*ROCKSPRINGS   CLEAR     43  30  61 SE16      30.04F WCI  35
*BOERNE STAGE  SUNNY     37  30  75 S3        30.12R
*CASTROVILLE   SUNNY     38  37  94 NW6       30.14R WCI  34
HONDO          SUNNY     43  36  76 NE6       30.13R WCI  39
*UVALDE        CLEAR     39  35  84 NE3       30.10S
DEL RIO        CLEAR     47  25  42 E12       30.04R WCI  42
LAUGHLIN AFB   CLEAR     45  26  46 SE10      30.05R WCI  40
CARRIZO SPRGS    N/A    N/A N/A N/A MISG      30.08R
$$

TXZ173-191>194-202-209-217>225-228-161400-
CENTRAL AND SOUTH CENTRAL TEXAS

CITY           SKY/WX    TMP DP  RH WIND       PRES   REMARKS
GEORGETOWN     SUNNY     43  32  65 S6        30.14R WCI  39
AUSTIN/BERGSTM PTSUNNY   37  35  92 CALM      30.14R
AUSTIN/MABRY   MOSUNNY   42  35  76 CALM      30.15R
*AUSTIN/EXEC   MOSUNNY   41  34  75 CALM      30.15R
*LAGO VISTA    MOSUNNY   45  31  59 S6        30.12R WCI  41
SAN MARCOS     SUNNY     37  30  75 NW3       30.16R
NEW BRAUNFELS  SUNNY     37  33  85 N5        30.12R WCI  33
RANDOLPH AFB   SUNNY     40  33  77 N2        30.13R
PT SAN ANTONIO SUNNY     43  35  75 N2        30.11R
SAN ANTONIO    SUNNY     45  35  68 CALM      30.12R
STINSON FIELD  SUNNY     43  37  79 N3        30.11R
*PLEASANTON    FLURRIES  38  33  84 CALM      30.13R
*LA GRANGE     SUNNY     41  37  86 CALM      30.13R
*GIDDINGS      SUNNY     41  35  77 CALM      30.18R
*GONZALES      SUNNY     43  35  75 E3        30.12R
$$

TXZ163>164-176>182-195>201-210>213-226-227-235-161400-
SOUTHEAST TEXAS

CITY           SKY/WX    TMP DP  RH WIND       PRES   REMARKS
COLLEGE STN    SUNNY     45  37  73 SE6       30.16R WCI  42
*BRYAN         SUNNY     40  35  84 SE5       30.16R WCI  36
*CALDWELL      SUNNY     39  36  87 S6        30.18R WCI  35
*CROCKETT      SUNNY     45  37  76 SE6       30.21S WCI  41
*BRENHAM       SUNNY     39  36  88 CALM      30.16R
HUNTSVILLE     SUNNY     46  35  65 SE6       30.18R WCI  43
CONROE         SUNNY     41  38  89 E3        30.19R
HOUSTON BUSH   MOSUNNY   47  41  80 E13       30.18R WCI  41
HOUSTON HOBBY  MOSUNNY   52  42  69 E8        30.17R
*HOUSTON SW AP SUNNY     45  39  79 NE3       30.17S
PEARLAND       SUNNY     50  43  77 NE5       30.18R WCI  48
HOUSTON HOOKS  SUNNY     47  40  76 E5        30.18R WCI  45
ELLINGTON FLD  MOSUNNY   52  45  76 NE5       30.18R
SUGAR LAND     SUNNY     53  39  59 E7        30.16S
*HOUSTON EXEC  SUNNY     46  41  81 NE6       30.18R WCI  43
*CLEVELAND MUN SUNNY     39  39 100 CALM      30.20R FOG
*WHARTON       SUNNY     43  39  87 E3        30.15R
$$

TXZ214>216-236>238-161400-
THE UPPER TEXAS COAST

CITY           SKY/WX    TMP DP  RH WIND       PRES   REMARKS
*ORANGE        SUNNY     43  38  83 NE6       30.22F WCI  39
PORT ARTHUR    SUNNY     49  38  65 E12       30.20S WCI  44
GALVESTON      MOSUNNY   58  41  53 E13       30.17R
ANGLETON       SUNNY     47  43  86 NE5       30.15S WCI  45
*BAY CITY      MOSUNNY   44  40  88 NE6       30.14S WCI  40
PALACIOS       MOSUNNY   48  40  73 NE6       30.14R WCI  45
$$

TXZ229>234-239>247-161400-
TEXAS COASTAL BEND AND RIO GRANDE PLAINS

CITY           SKY/WX    TMP DP  RH WIND       PRES   REMARKS
VICTORIA       SUNNY     47  40  76 NE7       30.14R WCI  44
*BEEVILLE      SUNNY     44  36  73 CALM      30.11R
ROCKPORT       MOSUNNY   62  47  57 SE14      30.11R
*PORT ARANSAS  MOSUNNY   60  46  60 SE10G17   30.10R
*PORT LAVACA   SUNNY     46  41  83 NE7       30.13R WCI  42
*INGLESIDE     SUNNY     54  47  76 SE6       30.10S
CORPUS CHRISTI MOSUNNY   51  44  77 SE6       30.10S
CORPUS NAS     MOSUNNY   61  48  62 SE13      30.10R
*ROBSTOWN      SUNNY     49  41  72 SE5       30.10S WCI  48
ALICE          SUNNY     45  38  76 W3        30.10R
KINGSVILLE NAS MOSUNNY   45  40  82 NW3       30.10S
COTULLA        CLEAR     46  34  62 SE5       30.11R WCI  44
*FAITH RANCH   CLEAR     50  36  57 SE10      30.07R WCI  46
LAREDO         CLEAR     50  38  63 SE7       30.12R WCI  47
$$

TXZ248>255-161400-
DEEP SOUTH TEXAS

CITY           SKY/WX    TMP DP  RH WIND       PRES   REMARKS
BROWNSVILLE    PTSUNNY   54  49  83 CALM      30.09S
PORT ISABEL    PTSUNNY   61  52  72 S3        30.09R
*SOUTH PADRE   PTSUNNY   63  50  63 MISG      30.08S
HARLINGEN      PTSUNNY   50  47  89 CALM      30.08S
*HEBBRONVILLE  PTSUNNY   45  37  76 CALM      30.09R
MCALLEN        PTSUNNY   53  45  74 E7        30.08S
*WESLACO       PTSUNNY   46  40  80 CALM      30.08S
FALFURRIAS     SUNNY     42  38  84 CALM      30.09F
EDINBURG       PTSUNNY   46  40  79 CALM      30.08F
*ZAPATA        MOCLDY    44  35  70 CALM      30.07S
$$

TXZ213>215-236>238-242>244-246-247-251-254-255-161400-
CMAN STATIONS

STATION/POSITION TIME  TEMP    WIND        PRES    WAVE
                       AIR SEA DIR/SP/G            HT/PER
                 (UTC) (F)     (DEG/KT/KT) (MB)    (FT/S)
SABINE PASS      1200   47 65   60/  9/ 13 1022.5
SEA RIM ST PARK  1200   45      60/  8/  9 1022.9
NORTH JETTY/GLS  1200   58 65  130/ 14/ 17   N/A
MORGANS POINT    1200   52 62   70/ 10/ 12 1023.2
MISSION/ARANSAS  1200   61     140/ 12     1020.0
PORT O`CONNOR    1200          120/ 15/ 17   N/A
PORT ARANSAS     1200   61 64  120/ 13/ 16 1019.1
MALAQUITE BEACH  1200   61 65  120/ 15/ 18 1018.4
BAFFIN BAY       1200   60 58  130/ 11/ 14 1019.0
PORT ISABEL      1200   62 65  120/ 10/ 12 1018.5
$$

GMZ080-GMZ150>470-161400-
OFFSHORE BUOY REPORTS

STATION/POSITION TIME  TEMP    WIND        PRES    WAVE
                       AIR SEA DIR/SP/G            HT/PER
                 (UTC) (F)     (DEG/KT/KT) (MB)    (FT/S)
20 E GALVESTON   1300   58 66   90/ 14/ 19 1021.4    2/ 4
35 NE PT MANSFLD 1300   62 69  130/ 14/ 17 1019.1    4/ 7
$$